OBJECT B, 66176

Orbit data source: Space-Track

You're viewing an Uncataloged Satellite

Recently launched and/or uncataloged satellites may have evolving metadata. Metadata may include but not limited to: Owner, Maufacturer, Bus, Motor, and Mission.

OBJECT B, 66176 is a satellite owned by CASC (CN) in SSO that was launched on Sun, 26 Oct 2025 UTC launched from the Xichang Space Center, China (XSC). Unknown objects in Earth's orbit typically refer to objects detected orbiting the Earth but have not yet been identified or cataloged. These objects could be anything from previously untracked satellites, spent rocket stages, debris from satellite collisions, or even natural meteoroids temporarily captured by Earth's gravity.

Loading next visibility...
Identifier
66176, 2025-242B
Orbit
SSO
Country
Flag of CNCN / PRC
Related business
Manufacturer
CALT
Mission
Spacecraft
Bus & Motor
CZ-3A STAGE 3, Unknown motor
Mass
~2,800 kg wet, ~2,800 kg dry
Launch date (UTC)
2025-10-26 (4 months ago)
Launch vehicle
Unknown
Launch site
Xichang Space Center, China (XSC)
Object type
Unknown
Shape & HBR
Cyl + 1 Nozzle, 4.2 m
Radar Cross Section
32.704 m²

Expand to show TLE details & history
Last TLE update: 6 hours ago

TLE from 6 hours ago
0 OBJECT B
1 66176U 25242B   26061.87729546  .00059547  00000-0  88567-3 0  9991
2 66176  97.4312 142.1907 0083609 298.1437  61.1385 15.50910261 19732
Epoch: 2026-03-02T21:03Z
TLE epoch observation values (Epoch: 2026-03-02T21:03:18.327Z)
Latitude
-0.00001°
Longitude
25.69993°
Altitude
390.147 km
Speed
7.691 km/s
True Right ascension
09h 28m 45s
True Declination
0° 00' 00"
Sunlit
Object was in full shadow at epoch
Visualization orbit readout
Latitude
Unknown
Longitude
Unknown
Altitude
Unknown
Speed
Unknown
Apparent Right ascension
Unknown
Apparent Declination
Unknown
Sunlit
N/A
Visualization observer readout
Local Sidereal Time
06:55:58
Azimuth
Unknown
Elevation
Unknown
Doppler factor
Unknown
Orbital elements
Apogee altitude
467.756 km
Perigee altitude
354.229 km
Semi-major axis
6,789.13 km
Eccentricity
0.00836
Inclination
97.4312°
RAAN
142.1907°
Arg. of periapsis
298.1437°
True anomaly
61.98181°
Mean anomaly
61.1385°
Eccentric anomaly
61.55973°
Mean motion
3.87991 °/min
Orbital period
92.79 mins
BSTAR
0.00088567
Loading maneuver chart data...
Computing Atmospheric mass density...
Loading historical data...
Loading historical data...
Loading historical data...
Loading historical data...
Loading historical data...
Loading historical data...
Loading historical data...
Other satellites on launch #242 in the year 2025 (2025-10-26 UTC)

Documentation

Showing up to 5 results
|